Simultaneous Nadir Overpasses (SNOs) Predictions

Prediction of SNOs between GOES-14 and NOAA-20 Satellite Orbit:

Table of predicted SNOs for the next 14.0 days since TLE Epoch: 9/18/2020
Index Date Time (GOES-14) GOES-14 Lat,Lon NOAA-20 Lat,Lon Distance(km) Time Diff (sec)
1 09/19/2020 08:16:56 0.34,-104.40 0.12,-103.40 114.13 80
2 09/20/2020 20:38:53 -0.33,-104.45 -1.25,-108.71 484.65 80
3 09/21/2020 20:22:47 -0.33,-104.46 -0.24,-104.18 32.93 80
4 09/24/2020 08:25:48 0.32,-104.40 0.42,-104.91 56.89 80
5 09/25/2020 08:04:23 0.33,-104.39 -0.58,-100.37 458.48 80
6 09/26/2020 20:26:18 -0.30,-104.43 -0.60,-105.67 141.99 80
7 09/27/2020 20:10:12 -0.31,-104.44 0.41,-101.14 375.65 80
8 09/29/2020 08:32:00 0.28,-104.41 0.72,-106.41 227.54 80
9 09/30/2020 08:10:34 0.30,-104.40 -0.28,-101.88 288.38 80
10 10/01/2020 20:32:30 -0.27,-104.42 -0.90,-107.18 314.94 80
